Showing default

COSMOS 2597, 66647

Orbit data source: Space-Track

COSMOS 2597, 66647 is a payload satellite owned by VVKO VKS (CIS) in LEO that was launched on Tue, 25 Nov 2025 UTC via an ANGARA-1.2 launch vehicle from the Plesetsk Missile And Space Complex (PKMTR). Payload-class satellites include a variety of spacecraft equipped with specific instruments for various scientific and technological missions. These include communications satellites like Starlink; space stations such as the ISS; scientific satellites like the Hubble; Earth observation satellites from companies like Planet Labs, Umbra, and HawkEye 360; GPS; miniature CubeSats for education and research; and military/defense satellites.

Loading next visibility...
Identifier
66647, 2025-273A
Orbit
LEO
Country
Flag of CISCIS
Related business
Manufacturer
Resehetnev ISS
Mission
Operational Defense Communications
Bus & Motor
STRELA-3M, Unknown motor
Mass
280 kg wet, 280 kg dry
Launch date (UTC)
2025-11-25 (7 months ago)
Launch vehicle
ANGARA-1.2
Launch site
Plesetsk Missile And Space Complex (PKMTR)
Object type
Payload
Rocket body
Debris
Shape & HBR
Cyl + 1 Ant, 1.1 m
Radar Cross Section
1.583 m², Large (>1 m²)

Expand to show TLE details & history
Last TLE update: 13 hours ago

TLE from 13 hours ago
0 COSMOS 2597
1 66647U 25273A   26171.37942663  .00000004  00000-0 -42372-4 0  9992
2 66647  82.4984 168.5368 0011111 204.8093 155.2454 12.42899396 25695
Epoch: 2026-06-20T09:06Z
TLE epoch observation values (Epoch: 2026-06-20T09:06:22.460Z)
Latitude
-0.00001°
Longitude
123.34832°
Altitude
1,504.982 km
Speed
7.109 km/s
True Right ascension
11h 14m 08s
True Declination
0° 00' 00"
Sunlit
Object was in daylight at epoch
Visualization orbit readout
Latitude
Unknown
Longitude
Unknown
Altitude
Unknown
Speed
Unknown
Apparent Right ascension
Unknown
Apparent Declination
Unknown
Sunlit
N/A
Visualization observer readout
Local Sidereal Time
08:33:20
Azimuth
Unknown
Elevation
Unknown
Doppler factor
Unknown
Orbital elements
Apogee altitude
1,500.432 km
Perigee altitude
1,482.943 km
Semi-major axis
7,869.825 km
Eccentricity
0.00111
Inclination
82.4984°
RAAN
168.5368°
Arg. of periapsis
204.8093°
True anomaly
155.29865°
Mean anomaly
155.2454°
Eccentric anomaly
155.27203°
Mean motion
3.10882 °/min
Orbital period
115.8 mins
BSTAR
-0.000042372
Loading maneuver chart data...
Computing Atmospheric mass density...
Loading historical data...
Loading historical data...
Loading historical data...
Loading historical data...
Loading historical data...
Loading historical data...
Loading historical data...
Other satellites on launch #273 in the year 2025 (2025-11-25 UTC)

Documentation

Showing up to 5 results
|